Location: East Guldeford
(50.9500°N, 0.7500°E)
Time: 09:44:26
(UTC+00:00)

IGS 5A - Pass Details

Date: 12 May 2021
Orbit: 583 x 588 km, 97.6° (Epoch: 06 May)

Event Time Altitude Azimuth Distance (km) Brightness Sun altitude
Exits shadow 20:31:12 - 168° (SSE) 2,338 6.0 -7.8°
Reaches altitude 10° 20:32:15 10° 168° (SSE) 1,902 5.6 -7.9°
Maximum altitude 20:36:23 82° 256° (WSW) 598 3.5 -8.4°
Drops below altitude 10° 20:40:33 10° 345° (NNW) 1,920 7.1 -8.9°
Sets 20:42:44 0° 346° (NNW) 2,825 8.1 -9.1°
